Overall — Hillbilly - Mini

Saturday 20 May 2023 · 58 finishers across every class · 4 laps for the winner

Complete overall finishing order for Hillbilly - Mini.
Pos No. Rider Class Laps Time Behind Int Pace
1 #51A SMITH, JAYTIN SM 14-15 4 1:11:28 0:00 17:52
2 #13A AL-AWAM, TORREN SM 14-15 4 1:13:58 +2:30 2:30 18:29
3 #17A POWERS, KARSON SM 14-15 4 1:17:47 +6:19 3:49 19:26
4 #42A SCHLICKENMEYER, SEAN SM 14-15 4 1:17:49 +6:21 0:02 19:27
5 #47B HARRISON, EVAN SM 12-13 4 1:17:56 +6:28 0:07 19:29
6 #1B WALTERS, DALTON SM 12-13 4 1:18:37 +7:09 0:41 19:39
7 #30B OLEARY, ASHTON SM 12-13 4 1:18:38 +7:10 0:01 19:39
8 #25B HERTZLER, NOAH SM 12-13 4 1:18:46 +7:18 0:08 19:41
9 #67A BONANNO, ADIN SM 14-15 4 1:18:55 +7:27 0:09 19:43
10 #66A LOWE, ALBERT SM 14-15 4 1:20:25 +8:57 1:30 20:06
11 #24A CHRIMES, CHASE SM 14-15 4 1:20:36 +9:08 0:11 20:09
12 #18B EDMONDSON, TUCKER SM 12-13 4 1:21:54 +10:26 1:18 20:28
13 #42C LACY, JACK MINI 12-13 4 1:21:55 +10:27 0:01 20:28
14 #29B POFF, PEYTON SM 12-13 4 1:23:53 +12:25 1:58 20:58
15 #99C CASH, CARSON MINI 12-13 4 1:24:18 +12:50 0:25 21:04
16 #16A CLINEDINST, LAIRD SM 14-15 4 1:25:24 +13:56 1:06 21:21
17 #12K BURKHOLDER, BRADLEY MINI 9-11K 4 1:25:52 +14:24 0:28 21:28
18 #21K WIGGINS, MADDIX MINI 9-11K 4 1:26:02 +14:34 0:10 21:30
19 #42D COLLINS, JAXON MINI 9-11 4 1:27:54 +16:26 1:52 21:58
20 #44B GEARHART, CADENCE SM 12-13 4 1:28:08 +16:40 0:14 22:02
21 #5A WESTON, BODIE SM 14-15 4 1:29:02 +17:34 0:54 22:15
22 #88D KEATING, JAMES MINI 9-11 4 1:30:05 +18:37 1:03 22:31
23 #23B JOHNSON, BRADY SM 12-13 4 1:30:55 +19:27 0:50 22:43
24 #22B FOUTZ, KELLEN SM 12-13 4 1:32:03 +20:35 1:08 23:00
25 #35B AUSTIN, BRAYDEN SM 12-13 4 1:39:07 +27:39 7:04 24:46
26 #20E JACOBS, PEYTON SM WOMEN 3 1:07:36 1 lap 0:00 22:32
27 #22D BAKER, COHEN MINI 9-11 3 1:08:57 1 lap 1:21 22:59
28 #4D KERN, QUENTIN MINI 9-11 3 1:10:18 1 lap 1:21 23:26
29 #12A SHANNON, PARKER SM 14-15 3 1:11:28 1 lap 1:10 23:49
30 #2E HARDMAN, SAVANNAH SM WOMEN 3 1:12:55 1 lap 1:27 24:18
31 #50K JOHNSON, LUCAS MINI 9-11K 3 1:13:22 1 lap 0:27 24:27
32 #1K DOMAN, HAYDEN MINI 9-11K 3 1:14:44 1 lap 1:22 24:54
33 #19C CAWLEY, MASON MINI 12-13 3 1:15:52 1 lap 1:08 25:17
34 #25K TORRES, TRISTIN MINI 9-11K 3 1:17:54 1 lap 2:02 25:58
35 #8E PANCAKE, DELILAH SM WOMEN 3 1:20:10 1 lap 2:16 26:43
36 #23C NALLS, COLTON MINI 12-13 3 1:20:42 1 lap 0:32 26:54
37 #5D BAKKEN, DASH MINI 9-11 3 1:23:30 1 lap 2:48 27:50
38 #35C QUESENBERRY, DILLAN MINI 12-13 3 1:33:24 1 lap 9:54 31:08
39 #69K LILLY, COLE MINI 9-11K 3 1:33:25 1 lap 0:01 31:08
40 #69A HUTCHISON, NICK SM 14-15 3 1:37:10 1 lap 3:45 32:23
41 #26D LILLY, WYATT MINI 9-11 3 1:38:01 1 lap 0:51 32:40
42 #5K SULLENS, SAMMY MINI 9-11K 3 1:38:26 1 lap 0:25 32:48
43 #89E CLINEDINST, LIVIA SM WOMEN 2 57:14 2 laps 0:00 28:37
44 #16C DODD, BENJAMIN MINI 12-13 2 1:13:31 2 laps 16:17 36:45
45 #10E PANCAKE, LILLIAN SM WOMEN 2 1:13:35 2 laps 0:04 36:47
46 #11K ADAMSON, CASSEL MINI 9-11K 2 1:14:18 2 laps 0:43 37:09
47 #51K RICE, HOLTON MINI 9-11K 2 1:14:35 2 laps 0:17 37:17
48 #55D RAFFERTY, LUKE MINI 9-11 2 1:19:32 2 laps 4:57 39:46
49 #18E EDMONDSON, MCKENNA SM WOMEN 2 1:21:28 2 laps 1:56 40:44
50 #9A VISHNESKI, JOHN SM 14-15 2 1:22:05 2 laps 0:37 41:02
51 #27K LOVE, CONNER MINI 9-11K 2 1:34:51 2 laps 12:46 47:25
52 #24D OLEARY, NOLAN MINI 9-11 1 37:27 3 laps 0:00 37:27
53 #8K MUTER, MAX MINI 9-11K 1 38:05 3 laps 0:38 38:05
54 #24K JESNECK, HUNTER MINI 9-11K 1 39:39 3 laps 1:34 39:39
55 #2K MEAD, RYLAN MINI 9-11K 1 41:09 3 laps 1:30 41:09
56 #29K PERRY, DYLAN MINI 9-11K 1 41:12 3 laps 0:03 41:12
57 #65D LILLY, RYDER MINI 9-11 1 42:57 3 laps 1:45 42:57
58 #31D MARTIN, EAN MINI 9-11 1 44:32 3 laps 1:35 44:32

Ranked the way the series ranks: most laps first, then least time. Behind is the deficit to the winner and is only shown where the lap count matches, because elapsed time says nothing across different lap counts — a rider a lap down shows the laps instead. Int is the gap to the rider immediately ahead.